| time (UTC) | temp C | wind direction | speed KPH | gust KPH | rain 1hr cm | rain 24hr cm | rain mn cm | humidity % | barometer mb |
| 20260505005037 | 12 | 48 | 4.8 | 8.0 | 0.10 | 0.10 | 0.10 | 68 | 1010.2 |
| 20260505004548 | 12 | 21 | 1.6 | 4.8 | 0.10 | 0.10 | 0.10 | 70 | 1010.3 |
| 20260505004036 | 12 | 58 | 0.0 | 4.8 | 0.10 | 0.10 | 0.10 | 69 | 1010.3 |
| 20260505003536 | 12 | 58 | 0.0 | 4.8 | 0.08 | 0.08 | 0.08 | 67 | 1010.3 |
| 20260505003042 | 12 | 320 | 1.6 | 12.9 | 0.08 | 0.08 | 0.08 | 67 | 1010.2 |
| 20260505002535 | 12 | 81 | 0.0 | 14.5 | 0.05 | 0.05 | 0.05 | 65 | 1010.3 |
| 20260505002034 | 13 | 85 | 3.2 | 16.1 | 0.05 | 0.05 | 0.05 | 62 | 1010.2 |
| 20260505001552 | 13 | 133 | 4.8 | 20.9 | 0.05 | 0.05 | 0.05 | 58 | 1010.1 |
| 20260505001034 | 14 | 140 | 8.0 | 20.9 | 0.03 | 0.03 | 0.03 | 53 | 1010.1 |
| 20260505000533 | 15 | 214 | 9.7 | 24.1 | 0.00 | 0.00 | 0.00 | 52 | 1009.7 |
| 20260505000054 | 15 | 200 | 11.3 | 24.1 | 0.00 | 0.00 | 0.00 | 48 | 1009.6 |
| 20260504235537 | 16 | 203 | 11.3 | 24.1 | 0.00 | 0.00 | 0.00 | 46 | 1009.4 |
| 20260504235037 | 16 | 211 | 9.7 | 24.1 | 0.00 | 0.00 | 0.00 | 44 | 1009.3 |
| 20260504234552 | 16 | 210 | 11.3 | 20.9 | 0.00 | 0.00 | 0.00 | 40 | 1009.1 |
| 20260504234036 | 16 | 164 | 8.0 | 16.1 | 0.00 | 0.00 | 0.00 | 38 | 1009.0 |
| 20260504233538 | 16 | 182 | 8.0 | 12.9 | 0.00 | 0.00 | 0.00 | 38 | 1008.9 |
| 20260504233045 | 16 | 187 | 4.8 | 9.7 | 0.00 | 0.00 | 0.00 | 40 | 1008.9 |
| 20260504232539 | 17 | 201 | 3.2 | 6.4 | 0.00 | 0.00 | 0.00 | 39 | 1008.8 |
| 20260504232039 | 17 | 223 | 3.2 | 6.4 | 0.00 | 0.00 | 0.00 | 39 | 1008.7 |
| 20260504231558 | 17 | 313 | 0.0 | 4.8 | 0.00 | 0.00 | 0.00 | 38 | 1008.7 |
| 20260504231039 | 17 | 315 | 0.0 | 4.8 | 0.00 | 0.00 | 0.00 | 39 | 1008.6 |
| 20260504230539 | 17 | 309 | 0.0 | 4.8 | 0.00 | 0.00 | 0.00 | 38 | 1008.5 |
| 20260504230049 | 17 | 325 | 0.0 | 4.8 | 0.00 | 0.00 | 0.00 | 37 | 1008.3 |
| 20260504225539 | 17 | 0 | 1.6 | 4.8 | 0.00 | 0.00 | 0.00 | 37 | 1008.2 |
| 20260504225039 | 17 | 292 | 0.0 | 9.7 | 0.00 | 0.00 | 0.00 | 38 | 1008.1 |
| 20260504224546 | 17 | 308 | 1.6 | 11.3 | 0.00 | 0.00 | 0.00 | 36 | 1008.1 |
| 20260504224039 | 17 | 292 | 1.6 | 11.3 | 0.00 | 0.00 | 0.00 | 38 | 1008.0 |
| 20260504223540 | 17 | 314 | 3.2 | 11.3 | 0.00 | 0.00 | 0.00 | 36 | 1008.1 |
| 20260504223046 | 17 | 281 | 1.6 | 11.3 | 0.00 | 0.00 | 0.00 | 37 | 1008.2 |
| 20260504222540 | 17 | 320 | 3.2 | 12.9 | 0.00 | 0.00 | 0.00 | 38 | 1008.3 |
| 20260504222039 | 17 | 302 | 4.8 | 12.9 | 0.00 | 0.00 | 0.00 | 38 | 1008.2 |
| 20260504221557 | 17 | 19 | 4.8 | 12.9 | 0.00 | 0.00 | 0.00 | 37 | 1008.3 |
| 20260504221038 | 17 | 352 | 1.6 | 9.7 | 0.00 | 0.00 | 0.00 | 39 | 1008.4 |
| 20260504220539 | 17 | 358 | 3.2 | 9.7 | 0.00 | 0.00 | 0.00 | 40 | 1008.4 |
| 20260504220052 | 16 | 336 | 1.6 | 9.7 | 0.00 | 0.00 | 0.00 | 40 | 1008.6 |
| 20260504215540 | 16 | 352 | 3.2 | 12.9 | 0.00 | 0.00 | 0.00 | 40 | 1008.7 |
| 20260504215039 | 16 | 328 | 3.2 | 14.5 | 0.00 | 0.00 | 0.00 | 40 | 1008.7 |
| 20260504214551 | 16 | 264 | 6.4 | 14.5 | 0.00 | 0.00 | 0.00 | 39 | 1009.0 |
| 20260504214040 | 17 | 263 | 4.8 | 24.1 | 0.00 | 0.00 | 0.00 | 40 | 1008.9 |
| 20260504213540 | 17 | 315 | 4.8 | 24.1 | 0.00 | 0.00 | 0.00 | 40 | 1008.8 |
| 20260504213050 | 17 | 254 | 9.7 | 24.1 | 0.00 | 0.00 | 0.00 | 39 | 1008.6 |
| 20260504212539 | 16 | 284 | 8.0 | 19.3 | 0.00 | 0.00 | 0.00 | 38 | 1008.3 |
| 20260504212039 | 16 | 309 | 4.8 | 22.5 | 0.00 | 0.00 | 0.00 | 39 | 1008.4 |
| 20260504211552 | 16 | 260 | 9.7 | 29.0 | 0.00 | 0.00 | 0.00 | 39 | 1008.2 |
| 20260504211038 | 16 | 290 | 12.9 | 29.0 | 0.00 | 0.00 | 0.00 | 40 | 1008.4 |
| 20260504210538 | 16 | 287 | 12.9 | 32.2 | 0.00 | 0.00 | 0.00 | 39 | 1008.7 |
| 20260504210105 | 16 | 246 | 17.7 | 32.2 | 0.00 | 0.00 | 0.00 | 38 | 1008.8 |
| 20260504205539 | 17 | 265 | 8.0 | 19.3 | 0.00 | 0.00 | 0.00 | 38 | 1009.1 |
| 20260504205041 | 16 | 342 | 8.0 | 19.3 | 0.00 | 0.00 | 0.00 | 39 | 1009.1 |
| 20260504204553 | 16 | 360 | 8.0 | 22.5 | 0.00 | 0.00 | 0.00 | 39 | 1009.2 |
| 20260504204038 | 16 | 308 | 6.4 | 22.5 | 0.00 | 0.00 | 0.00 | 39 | 1009.1 |
| 20260504203538 | 16 | 347 | 11.3 | 22.5 | 0.00 | 0.00 | 0.00 | 38 | 1009.1 |
| 20260504203053 | 16 | 42 | 9.7 | 19.3 | 0.00 | 0.00 | 0.00 | 38 | 1009.4 |
| 20260504202538 | 16 | 22 | 6.4 | 29.0 | 0.00 | 0.00 | 0.00 | 37 | 1009.3 |
| 20260504202038 | 16 | 17 | 9.7 | 29.0 | 0.00 | 0.00 | 0.00 | 38 | 1009.5 |
| 20260504201550 | 16 | 69 | 17.7 | 29.0 | 0.00 | 0.00 | 0.00 | 37 | 1009.6 |
| 20260504201038 | 16 | 347 | 8.0 | 24.1 | 0.00 | 0.00 | 0.00 | 44 | 1009.7 |
| 20260504200539 | 16 | 347 | 8.0 | 43.5 | 0.00 | 0.00 | 0.00 | 40 | 1009.7 |
| 20260504200059 | 16 | 47 | 14.5 | 43.5 | 0.00 | 0.00 | 0.00 | 40 | 1009.6 |
| 20260504195538 | 16 | 32 | 16.1 | 43.5 | 0.00 | 0.00 | 0.00 | 38 | 1009.6 |
| 20260504195038 | 17 | 358 | 12.9 | 25.7 | 0.00 | 0.00 | 0.00 | 39 | 1009.3 |
| 20260504194607 | 17 | 31 | 6.4 | 19.3 | 0.00 | 0.00 | 0.00 | 40 | 1009.4 |
| 20260504194038 | 17 | 15 | 4.8 | 25.7 | 0.00 | 0.00 | 0.00 | 38 | 1009.2 |
| 20260504193538 | 17 | 9 | 12.9 | 25.7 | 0.00 | 0.00 | 0.00 | 33 | 1008.9 |
| 20260504193058 | 17 | 33 | 12.9 | 29.0 | 0.00 | 0.00 | 0.00 | 35 | 1008.5 |
| 20260504192538 | 17 | 77 | 14.5 | 29.0 | 0.00 | 0.00 | 0.00 | 35 | 1008.2 |
| 20260504192038 | 17 | 2 | 11.3 | 35.4 | 0.00 | 0.00 | 0.00 | 36 | 1008.5 |
| 20260504191552 | 17 | 339 | 16.1 | 35.4 | 0.00 | 0.00 | 0.00 | 35 | 1008.5 |
| 20260504191038 | 18 | 327 | 11.3 | 27.4 | 0.00 | 0.00 | 0.00 | 30 | 1008.4 |
| 20260504190538 | 18 | 15 | 6.4 | 27.4 | 0.00 | 0.00 | 0.00 | 28 | 1007.9 |
| 20260504190117 | 18 | 352 | 9.7 | 30.6 | 0.00 | 0.00 | 0.00 | 29 | 1007.9 |
| 20260504185537 | 19 | 10 | 16.1 | 30.6 | 0.00 | 0.00 | 0.00 | 26 | 1007.9 |
| 20260504185038 | 20 | 36 | 17.7 | 27.4 | 0.00 | 0.00 | 0.00 | 25 | 1007.7 |
| 20260504184558 | 20 | 35 | 8.0 | 14.5 | 0.00 | 0.00 | 0.00 | 26 | 1007.7 |
| 20260504184038 | 20 | 17 | 6.4 | 16.1 | 0.00 | 0.00 | 0.00 | 23 | 1007.6 |
| 20260504183538 | 20 | 40 | 6.4 | 22.5 | 0.00 | 0.00 | 0.00 | 23 | 1007.5 |
| 20260504183050 | 20 | 19 | 8.0 | 22.5 | 0.00 | 0.00 | 0.00 | 23 | 1007.5 |
| 20260504182538 | 21 | 36 | 9.7 | 24.1 | 0.00 | 0.00 | 0.00 | 23 | 1007.5 |
| 20260504182038 | 21 | 312 | 9.7 | 24.1 | 0.00 | 0.00 | 0.00 | 22 | 1007.6 |
| 20260504181558 | 21 | 294 | 11.3 | 29.0 | 0.00 | 0.00 | 0.00 | 23 | 1007.5 |
| 20260504181038 | 21 | 19 | 11.3 | 29.0 | 0.00 | 0.00 | 0.00 | 23 | 1007.7 |
| 20260504180539 | 21 | 352 | 8.0 | 20.9 | 0.00 | 0.00 | 0.00 | 23 | 1007.5 |
| 20260504180143 | 21 | 18 | 6.4 | 19.3 | 0.00 | 0.00 | 0.00 | 21 | 1007.7 |
| 20260504175540 | 21 | 35 | 8.0 | 24.1 | 0.00 | 0.00 | 0.00 | 21 | 1007.5 |
| 20260504175038 | 22 | 4 | 8.0 | 27.4 | 0.00 | 0.00 | 0.00 | 19 | 1007.7 |
| 20260504174549 | 22 | 296 | 3.2 | 27.4 | 0.00 | 0.00 | 0.00 | 24 | 1007.8 |
| 20260504174040 | 22 | 21 | 11.3 | 29.0 | 0.00 | 0.00 | 0.00 | 21 | 1007.9 |
| 20260504173538 | 22 | 317 | 11.3 | 29.0 | 0.00 | 0.00 | 0.00 | 21 | 1007.9 |
| 20260504173108 | 22 | 333 | 11.3 | 27.4 | 0.00 | 0.00 | 0.00 | 21 | 1007.9 |
| 20260504172538 | 22 | 342 | 8.0 | 20.9 | 0.00 | 0.00 | 0.00 | 21 | 1007.9 |
| 20260504172038 | 22 | 313 | 9.7 | 19.3 | 0.00 | 0.00 | 0.00 | 21 | 1007.9 |
| 20260504171556 | 22 | 274 | 4.8 | 12.9 | 0.00 | 0.00 | 0.00 | 24 | 1008.0 |
| 20260504171041 | 22 | 246 | 1.6 | 17.7 | 0.00 | 0.00 | 0.00 | 26 | 1007.9 |
| 20260504170539 | 22 | 352 | 4.8 | 17.7 | 0.00 | 0.00 | 0.00 | 21 | 1008.0 |
| 20260504151038 | 13 | 0 | 0.0 | 4.8 | 0.00 | 0.00 | 0.00 | 45 | 1008.8 |
| 20260504150538 | 13 | 247 | 0.0 | 4.8 | 0.00 | 0.00 | 0.00 | 40 | 1008.8 |
| 20260504141037 | 8 | 325 | 1.6 | 6.4 | 0.00 | 0.00 | 0.00 | 55 | 1009.2 |
| 20260504140538 | 8 | 329 | 1.6 | 6.4 | 0.00 | 0.00 | 0.00 | 59 | 1009.2 |
| 20260504140112 | 8 | 358 | 0.0 | 6.4 | 0.00 | 0.00 | 0.00 | 60 | 1009.1 |
| 20260504130540 | 6 | 244 | 1.6 | 4.8 | 0.00 | 0.00 | 0.00 | 61 | 1009.2 |
| 20260504120110 | 5 | 0 | 0.0 | 1.6 | 0.00 | 0.00 | 0.00 | 60 | 1009.1 |
| 20260504110538 | 5 | 0 | 0.0 | 4.8 | 0.00 | 0.00 | 0.00 | 58 | 1009.4 |
| 20260504100542 | 6 | 347 | 1.6 | 4.8 | 0.00 | 0.00 | 0.00 | 60 | 1009.6 |
| 20260504081546 | 7 | 324 | 1.6 | 6.4 | 0.00 | 0.00 | 0.00 | 55 | 1010.5 |
| 20260504081039 | 8 | 360 | 1.6 | 4.8 | 0.00 | 0.00 | 0.00 | 56 | 1010.5 |
| 20260504080537 | 8 | 0 | 0.0 | 4.8 | 0.00 | 0.00 | 0.00 | 57 | 1010.4 |
| 20260504050537 | 13 | 317 | 3.2 | 8.0 | 0.00 | 0.00 | 0.00 | 36 | 1011.5 |
| 20260504050117 | 13 | 266 | 3.2 | 14.5 | 0.00 | 0.00 | 0.00 | 37 | 1011.5 |
| 20260504045537 | 14 | 347 | 3.2 | 14.5 | 0.00 | 0.00 | 0.00 | 36 | 1011.4 |
| 20260504045040 | 14 | 19 | 6.4 | 22.5 | 0.00 | 0.00 | 0.00 | 34 | 1011.5 |
| 20260504044545 | 15 | 347 | 4.8 | 22.5 | 0.00 | 0.00 | 0.00 | 33 | 1011.6 |
| 20260504044037 | 15 | 44 | 11.3 | 22.5 | 0.00 | 0.00 | 0.00 | 34 | 1011.4 |
| 20260504043538 | 14 | 306 | 8.0 | 16.1 | 0.00 | 0.00 | 0.00 | 34 | 1011.6 |
| 20260504043047 | 15 | 329 | 3.2 | 29.0 | 0.00 | 0.00 | 0.00 | 34 | 1011.6 |
| 20260504042538 | 15 | 246 | 6.4 | 33.8 | 0.00 | 0.00 | 0.00 | 33 | 1011.3 |
| 20260504042037 | 15 | 135 | 14.5 | 33.8 | 0.00 | 0.00 | 0.00 | 34 | 1011.0 |
| 20260504041548 | 15 | 86 | 12.9 | 25.7 | 0.00 | 0.00 | 0.00 | 33 | 1010.9 |
| 20260504041038 | 16 | 2 | 9.7 | 25.7 | 0.00 | 0.00 | 0.00 | 32 | 1011.1 |
| 20260504040537 | 16 | 79 | 11.3 | 35.4 | 0.00 | 0.00 | 0.00 | 32 | 1011.0 |
| 20260504040048 | 16 | 44 | 16.1 | 35.4 | 0.00 | 0.00 | 0.00 | 31 | 1011.3 |
| 20260504035540 | 16 | 22 | 16.1 | 37.0 | 0.00 | 0.00 | 0.00 | 31 | 1011.3 |
| 20260504035040 | 16 | 39 | 20.9 | 37.0 | 0.00 | 0.00 | 0.00 | 31 | 1011.2 |
| 20260504034550 | 16 | 83 | 14.5 | 32.2 | 0.00 | 0.00 | 0.00 | 32 | 1011.3 |
| 20260504034040 | 16 | 55 | 19.3 | 32.2 | 0.00 | 0.00 | 0.00 | 30 | 1011.5 |
| 20260504033540 | 17 | 33 | 12.9 | 33.8 | 0.00 | 0.00 | 0.00 | 28 | 1011.2 |
| 20260504033047 | 17 | 6 | 16.1 | 33.8 | 0.00 | 0.00 | 0.00 | 27 | 1011.1 |
| 20260504032538 | 17 | 79 | 11.3 | 32.2 | 0.00 | 0.00 | 0.00 | 27 | 1010.9 |
| 20260504032040 | 17 | 94 | 20.9 | 32.2 | 0.00 | 0.00 | 0.00 | 25 | 1010.7 |
| 20260504031603 | 17 | 76 | 11.3 | 22.5 | 0.00 | 0.00 | 0.00 | 25 | 1010.8 |
| 20260504031037 | 17 | 66 | 8.0 | 17.7 | 0.00 | 0.00 | 0.00 | 26 | 1010.9 |
| 20260504030538 | 16 | 1 | 8.0 | 17.7 | 0.00 | 0.00 | 0.00 | 27 | 1010.9 |
| 20260504030050 | 16 | 43 | 8.0 | 17.7 | 0.00 | 0.00 | 0.00 | 32 | 1010.9 |
| 20260504025538 | 16 | 0 | 1.6 | 9.7 | 0.00 | 0.00 | 0.00 | 32 | 1010.6 |
| 20260504025038 | 16 | 43 | 0.0 | 12.9 | 0.00 | 0.00 | 0.00 | 33 | 1010.4 |
| 20260504024546 | 16 | 35 | 6.4 | 12.9 | 0.00 | 0.00 | 0.00 | 33 | 1010.5 |
| 20260504024037 | 17 | 36 | 3.2 | 6.4 | 0.00 | 0.00 | 0.00 | 32 | 1010.4 |
| 20260504023537 | 17 | 135 | 0.0 | 3.2 | 0.00 | 0.00 | 0.00 | 35 | 1010.2 |
| 20260504023049 | 17 | 135 | 0.0 | 3.2 | 0.00 | 0.00 | 0.00 | 33 | 1010.2 |
| 20260504022540 | 17 | 0 | 0.0 | 3.2 | 0.00 | 0.00 | 0.00 | 34 | 1010.3 |
| 20260504022036 | 18 | 135 | 1.6 | 4.8 | 0.00 | 0.00 | 0.00 | 31 | 1010.2 |
| 20260504021546 | 18 | 135 | 1.6 | 4.8 | 0.00 | 0.00 | 0.00 | 26 | 1010.2 |
| 20260504021036 | 18 | 128 | 3.2 | 4.8 | 0.00 | 0.00 | 0.00 | 27 | 1010.1 |
| 20260504020538 | 18 | 0 | 1.6 | 4.8 | 0.00 | 0.00 | 0.00 | 27 | 1010.2 |
| 20260504020045 | 18 | 324 | 0.0 | 6.4 | 0.00 | 0.00 | 0.00 | 28 | 1010.2 |
| 20260504015537 | 18 | 0 | 0.0 | 8.0 | 0.00 | 0.00 | 0.00 | 26 | 1010.2 |
| 20260504015037 | 18 | 127 | 4.8 | 8.0 | 0.00 | 0.00 | 0.00 | 26 | 1009.9 |
| 20260504014549 | 18 | 111 | 0.0 | 4.8 | 0.00 | 0.00 | 0.00 | 26 | 1010.1 |
| 20260504014037 | 19 | 335 | 0.0 | 3.2 | 0.00 | 0.00 | 0.00 | 26 | 1010.1 |
| 20260504013537 | 19 | 6 | 0.0 | 1.6 | 0.00 | 0.00 | 0.00 | 25 | 1010.1 |
| 20260504013051 | 19 | 0 | 0.0 | 4.8 | 0.00 | 0.00 | 0.00 | 26 | 1010.0 |
| 20260504012537 | 19 | 0 | 0.0 | 4.8 | 0.00 | 0.00 | 0.00 | 27 | 1010.0 |
| 20260504012036 | 20 | 17 | 0.0 | 9.7 | 0.00 | 0.00 | 0.00 | 24 | 1010.1 |
| 20260504011553 | 20 | 0 | 1.6 | 9.7 | 0.00 | 0.00 | 0.00 | 24 | 1010.1 |
| 20260504011037 | 20 | 136 | 1.6 | 8.0 | 0.00 | 0.00 | 0.00 | 22 | 1010.1 |
| 20260504010538 | 20 | 140 | 3.2 | 9.7 | 0.00 | 0.00 | 0.00 | 22 | 1010.0 |
| 20260504010047 | 20 | 91 | 4.8 | 9.7 | 0.00 | 0.00 | 0.00 | 22 | 1010.1 |
| 20260504005537 | 20 | 125 | 3.2 | 6.4 | 0.00 | 0.00 | 0.00 | 21 | 1010.1 |